Regional Weather Roundup
Issued by NWS Pendleton, OR

Home | Current Version | Previous Version | Text Only | Print | Product List | Glossary On
Versions: 1 2 3 4 5 6 7 8 9 10 11 12 13 14 15 16 17 18 19 20 21 22 23 24 25 26 27 28 29 30 31 32 33 34 35 36 37 38 39 40 41 42 43 44 45 46 47 48 49 50
000
ASUS46 KPDT 210425
RWRPDT
PENDLETON REGIONAL WEATHER ROUNDUP
NATIONAL WEATHER SERVICE PENDLETON OREGON
900 PM PDT THU JUL 20 2017

NOTE: FAIR INDICATES FEW OR NO CLOUDS BELOW 12,000 FEET WITH NO
SIGNIFICANT WEATHER AND/OR OBSTRUCTIONS TO VISIBILITY.

# INDICATES UNOFFICIAL STATION AND DATA

WAZ520-210510-
EAST SLOPES OF WASHINGTON CASCADES

CITY            SKY/WX      TMP DP  RH  WIND    PRES   REMARKS
#BULLFROG       N/A         61  48  62  W3      N/A
#CLE ELUM HS    N/A         60  46  60  SW2     30.03S
#CLE ELUM LAKE  N/A         56  46  69  CALM    30.17F
#EASTON DOT     N/A         56  46  69  N1      N/A
#ELK HTS DOT    N/A         60  59  96  W5      N/A
#GLENWOOD       N/A         62  50  65  S3      30.00S
#NELSON 3SW     N/A         55  44  66  CALM    30.21S
#NILE           N/A         61  47  60  W2      29.30R
#TEANAWAY 4NE   N/A         60  47  62  CALM    N/A
#TROUT LAKE 1NE N/A         58  49  72  CALM    30.03S
#TROUT LAKE 1E  N/A         61  49  65  CALM    30.11F
$$

WAZ521-210510-
SIMCOE HIGHLANDS

CITY            SKY/WX      TMP DP  RH  WIND    PRES   REMARKS
#BICKLETON HS   N/A         60  49  67  W3      30.01S
#CENTERVILLE 1SWN/A         63  46  54  W6      29.98R
#GOLDENDALE 1NE N/A         66  30  26  W5      N/A
#GOLDENDALE 4W  N/A         66  17  15  W14     30.10S
#GOODNOE HILLS  N/A         68  46  45  NW8     N/A
#LYLE 6NE       N/A         65  49  56  W8      30.03S
#PITT 4SE       N/A         60  46  60  SW5     30.05R
$$

WAZ026-210510-
KITTITAS VALLEY

CITY            SKY/WX      TMP DP  RH  WIND    PRES   REMARKS
ELLENSBURG AP   PTCLDY      63  46  54  W14     30.07R
#ELLENSBURG CWU N/A         62  47  58  N10     29.95R
#ELLENSBURG 3NE N/A         61  47  60  N8      28.14R
#ELLENSBURG 1E  N/A         63  46  54  NW5     30.04R
#KITTITAS 3S    N/A         61  47  60  NW7     29.98R
#MANASTASH RDG  N/A         59  59  100 N10     N/A
#ROCKY CYN DOT  N/A         62  48  60  NW12    N/A
#RYEGRASS DOT   N/A         60  44  55  S28     N/A
$$

WAZ027-210510-
YAKIMA VALLEY

CITY            SKY/WX      TMP DP  RH  WIND    PRES   REMARKS
SUNNYSIDE AP    N/A         65  49  56  CALM    30.00R
YAKIMA AIRPORT  PTCLDY      71  47  42  NW6     30.03R
YAKIMA-VAGABOND CLEAR       68  43  40  NE12    30.03R
#DONALD 2NE     N/A         70  11  10  NW6     28.86R
#GRANDVIEW      N/A         74  45  35  W2      29.97R
#MABTON         N/A         74  52  46  NW6     29.98R
#MOXEE 2E       N/A         67  N/A N/A N5      29.94R
#NACHES 2SW     N/A         64  47  54  W5      30.03S
#OUTLOOK DOT    N/A         71  46  41  CALM    29.96R
#PARKER DOT     N/A         71  44  38  S9      30.01R
#TERRACE HTS    N/A         68  46  45  N2      29.93S
#TOPPENISH      N/A         71  49  46  CALM    29.90R
#I82 S UMTANUM RN/A         64  45  50  N15     N/A
#UNION GAP DOT  N/A         70  47  44  N3      30.04S
#W YAKIMA       N/A         66  47  50  NW3     29.99R
#WHITE SWAN 5E  N/A         69  48  47  CALM    29.97R
#WILEY CITY 3W  N/A         66  39  37  CALM    30.01R
#ZILLAH DOT     N/A         70  45  41  N6      N/A
$$

WAZ028-210510-
LOWER COLUMBIA BASIN...WASHINGTON

CITY            SKY/WX      TMP DP  RH  WIND    PRES   REMARKS
PASCO           MOCLDY      70  50  49  NW6     29.98R
PROSSER AWOS    N/A         70  54  57  W6      30.01S
RICHLAND AWOS   CLOUDY      75  44  33  NW13    29.99R
#BENTON CITY    N/A         72  47  41  CALM    29.85S
#CONNELL 5N     N/A         69  46  44  W2      29.94R
#CONNELL 5NW    N/A         65  49  56  NW1     29.90R
#ELTOPIA 6NW    N/A         71  47  42  CALM    28.97R
#KAHLOTUS       N/A         73  44  35  N9      29.93R
#KENNEWICK 3S   N/A         74  49  41  CALM    29.96R
#PATERSON       N/A         73  54  51  W1      29.94R
#PROSSER DOT    N/A         76  52  43  CALM    29.99S
#SAGEMOOR 2W    N/A         71  47  42  NW6     29.82R
#TOUCHET 2S     N/A         75  44  33  SW9     29.93S
#WEST PASCO     N/A         76  49  39  N1      29.96R
$$

WAZ029-210510-
FOOTHILLS OF THE BLUES...WASHINGTON

CITY            SKY/WX      TMP DP  RH  WIND    PRES   REMARKS
WALLA WALLA AP  MOCLDY      75  40  28  S7      30.01S
#CLYDE 6NW      N/A         70  43  38  SW1     29.93R
#DAYTON SCHOOL  N/A         71  34  26  N1      30.03S
#DELANEY DOT    N/A         72  40  31  S3      30.00S
#LOWDEN 2SE     N/A         74  46  37  W3      29.95R
#PLEASANT VIEW 1N/A         69  42  37  SW2     29.97R
#PRESCOTT       N/A         72  44  37  CALM    29.93R
#WHITMAN COLLEGEN/A         75  46  36  CALM    30.00S
#WAITSBURG 5S   N/A         68  39  35  CALM    30.04R
#WAITSBURG 6SSE N/A         64  41  43  E2      30.00R
#WALLA WALLA 5E N/A         65  41  41  NE1     N/A
#WHITMAN MISSIONN/A         74  46  37  CALM    29.97R
$$

WAZ030-210510-
BLUE MOUNTAINS...WASHINGTON

CITY            SKY/WX      TMP DP  RH  WIND    PRES   REMARKS
#DIXIE 5SE      N/A         66  37  34  S5      30.01S
$$

ORZ009-041-WAZ024-210510-
COLUMBIA RIVER GORGE

CITY            SKY/WX      TMP DP  RH  WIND    PRES   REMARKS
HOOD RIVER AP   CLEAR       66  50  56  NW6     30.08S
THE DALLES AP   CLEAR       73  49  43  NW15G25 30.03S
#ARLINGTON AIRPON/A         71  46  41  W14     29.99R
#CELILO DOT     N/A         75  49  40  SW8     N/A
#LYLE           N/A         72  53  51  NW12    30.05S
#MARYHILL       N/A         69  44  40  N12     N/A
#RUFUS DOT      N/A         76  N/A N/A W20     N/A
#SMITHVILLE     N/A         70  52  53  W5      30.02R

$$

ORZ510-210510-
NORTH CENTRAL OREGON

CITY            SKY/WX      TMP DP  RH  WIND    PRES   REMARKS
#ANTELOPE       N/A         64  47  54  E6      29.86R
#CHENOWITH 1W   N/A         63  48  58  W28     N/A
#COW CYN RST AREN/A         65  44  46  N8      N/A
#DUFUR          N/A         60  49  67  CALM    30.00R
#DUFUR 9E       N/A         60  46  60  W10     30.08S
#GRASS VALLEY 1SN/A         61  47  60  NW5     30.11R
#KENT DOT       N/A         62  43  50  NW8     N/A
#MAUPIN SCHOOL  N/A         70  51  51  CALM    30.10R
#MORO SCHOOL    N/A         64  50  60  W9      30.06S
#SHANIKO 5WSW   N/A         63  42  46  N12     N/A
#SHANIKO 4NW    N/A         59  45  60  N9      30.12S
#TYGH VALLEY 2NEN/A         69  50  51  N5      30.00R
#WAPANITIA AIRPON/A         66  47  50  W2      30.02R
#WASCO DOT      N/A         69  49  49  W8      N/A
#WASCO 5NE      N/A         64  47  54  CALM    30.00S
$$

ORZ511-210510-
CENTRAL OREGON

CITY            SKY/WX      TMP DP  RH  WIND    PRES   REMARKS
BEND AIRPORT    CLEAR       66  39  37  N6      30.13R
MADRAS AIRPORT  CLEAR       61  45  56  N6      30.12R
PRINEVILLE AP   CLEAR       64  43  46  N6      30.11R
REDMOND AIRPORT CLEAR       68  40  36  N10     30.10R
#ASHWOOD SCHOOL N/A         67  46  47  CALM    30.05R
#BEND 1SW       N/A         64  41  43  CALM    N/A
#BEND-AWBREY    N/A         66  43  43  N3      29.98R
#BEND-KIM LN    N/A         66  45  47  N2      29.93R
#CULVER         N/A         64  47  54  CALM    29.90R
#CULVER 8W      N/A         68  50  53  CALM    30.10R
#LAKE BILLY CHINN/A         68  N/A N/A NE7     30.04R
#MADRAS 4S      N/A         68  17  14  NW3     N/A
#POWELL BUTTE   N/A         67  48  50  W1      30.07R
#PRINEVILLE     N/A         67  45  45  W1      30.04R
#PRINEVILLE 3N  N/A         66  48  52  N2      30.04R
#WARM SPRINGS   N/A         70  50  49  CALM    29.88R

$$


ORZ509-210510-
EAST SLOPES OF OREGON CASCADES

CITY            SKY/WX      TMP DP  RH  WIND    PRES   REMARKS
SISTERS AWOS    N/A         66  46  48  NW3     30.07R
#CAMP SHERMAN   N/A         63  45  52  CALM    30.07R
#LA PINE 4NW    N/A         62  47  58  CALM    30.03R
#LAVA BUTTE DOT N/A         65  39  38  CALM    N/A
#SISTERS ODOT   N/A         67  42  40  W6      N/A
#SISTERS 3N     N/A         63  44  50  N2      30.04R
#SUNRIVER       N/A         64  44  48  CALM    30.15R
#TUMALO 3W      N/A         65  43  45  N5      29.86R
#WANOGA BUTTE D N/A         58  34  40  N3      N/A

$$

ORZ044-210510-
LOWER COLUMBIA BASIN...OREGON

CITY            SKY/WX      TMP DP  RH  WIND    PRES   REMARKS
HERMISTON       CLOUDY      73  43  34  SW14    29.99R
#BOARDMAN SCHOOLN/A         75  47  37  S3      29.96S
#BOARDMAN 8SW   N/A         70  47  44  SW13    29.98R
#ECHO 8SW       N/A         71  43  36  SW5     30.01S
#I-84 EX 198 DOTN/A         73  48  41  NE8     N/A
#IONE SCHOOL    N/A         71  45  39  SW7     30.01R
#UMATILLA       N/A         73  44  35  S8      29.89R
$$

ORZ507-210510-
NORTHERN FOOTHILLS OF THE BLUES

CITY            SKY/WX      TMP DP  RH  WIND    PRES   REMARKS
PENDLETON AIRPT MOCLDY      70  40  34  W10     30.02S
#ADAMS 3WNW     N/A         69  42  37  W2      29.97R
#ATHENA         N/A         67  41  39  CALM    30.00R
#CAYUSE         N/A         69  42  37  E1      29.97R
#HELIX SCHOOL   N/A         68  41  37  CALM    29.97R
#HELIX 3N       N/A         67  40  37  SW8     30.02R
#HOLDMAN 5SE    N/A         67  43  42  W1      30.02R
#HOLDMAN 6E     N/A         68  43  40  SW7     29.78R
#M-F GROVE ELEM N/A         72  36  27  W2      29.99S
#M-FREEWATER 5SEN/A         67  44  43  CALM    30.02R
#PENDLETON DNTN N/A         73  39  29  CALM    30.01S
#PDT AQUATIC CTRN/A         71  40  32  CALM    30.02S
#PDT SUNRIDGE   N/A         71  43  36  SW1     30.04R
#PENDLETON 7NW  N/A         71  47  42  W6      30.05R
#PILOT ROCK 1S  N/A         67  38  34  CALM    30.06R
#PILOT ROCK     N/A         69  42  37  CALM    30.08R
#TUTUILLA       N/A         67  46  47  CALM    30.08R
#UMAPINE 2E     N/A         69  48  47  SW5     29.96S
#WESTON SCHOOL  N/A         67  37  33  W1      29.96R

$$

ORZ508-210510-
SOUTHERN FOOTHILLS OF THE BLUES

CITY            SKY/WX      TMP DP  RH  WIND    PRES   REMARKS
LEXINGTON       N/A         68  43  40  MISG    30.10R
#AJAX           N/A         63  41  44  S6      30.23R
#CONDON 5W      N/A         58  44  60  NW3     30.11R
#FOSSIL SCHOOL  N/A         64  44  48  CALM    30.04R
#HEPPNER EOC    N/A         65  43  45  CALM    29.94R
#HEPPNER 4NE    N/A         62  43  50  W6      30.00R
#LEXINGTON 2SE  N/A         68  44  42  CALM    30.03R
#MIKKALO        N/A         66  40  38  W2      30.19R
#OLEX 4N        N/A         69  46  44  SW10    30.02R
#RUGGS 5NE      N/A         61  39  44  CALM    30.27S
#RUGGS 2SW      N/A         61  43  51  S1      30.01R

$$

ORZ502-503-210510-
BLUE MOUNTAINS

CITY            SKY/WX      TMP DP  RH  WIND    PRES   REMARKS
MEACHAM         PTCLDY      58  33  39  CALM    30.14R
#BATTLE MTN DOT N/A         59  38  45  N1      N/A
#GRANITE        N/A         59  34  39  E2      29.80R
#HEPPNER 15SE   N/A         55  42  61  CALM    29.99R
#LADD CYN SMT   N/A         66  40  38  NW8     N/A
#LADD CREEK ODOTN/A         69  38  32  NE7     N/A
#LONG CREEK HS  N/A         65  43  45  CALM    N/A
#N POWDER DOT   N/A         66  46  48  N9      N/A
#PIKES PEAK     N/A         65  37  35  N13     27.99S
#TOLLGATE       N/A         52  37  56  CALM    30.01S
#TROY SCHOOL    N/A         76  45  33  CALM    29.77R
#UKIAH          N/A         62  43  50  N3      29.91R
#WESTON 4E      N/A         64  40  41  SW2     29.95R
$$

ORZ505-210510-
JOHN DAY BASIN

CITY            SKY/WX      TMP DP  RH  WIND    PRES   REMARKS
JOHN DAY        CLEAR       71  38  30  CALM    30.10R
#JOHN DAY KJDY  N/A         76  N/A N/A NW6     31.07R
#ANTELOPE 9ESE  N/A         71  47  42  NE2     N/A
#DAYVILLE SCHOOLN/A         75  38  26  NW1     29.99R
#MITCHELL       N/A         68  48  49  CALM    30.25R
#MITCHELL 8NW   N/A         66  42  42  NW3     30.02R
#MONUMENT HS    N/A         73  41  31  E7      30.00R
#MT. VERNON 5SE N/A         70  40  34  W1      30.05R
#SPRAY SCHOOL   N/A         71  N/A N/A CALM    N/A
$$

ORZ506-210510-
OCHOCO AND JOHN DAY HIGHLANDS

CITY            SKY/WX      TMP DP  RH  WIND    PRES   REMARKS
#HORSE RIDGE DO N/A         68  27  21  NW10    N/A
#IZEE 6NW       N/A         70  38  31  NE1     N/A
#PAULINA ODOT   N/A         74  32  21  N3      N/A
#PINE MTN OBS   N/A         57  30  35  N8      N/A
#PRAIRIE CITY   N/A         70  39  32  CALM    30.20
#SENECA         N/A         68  N/A N/A CALM    N/A
#SENECA 9NW     N/A         65  37  35  CALM    29.88R
$$

ORZ049-210510-
GRANDE RONDE VALLEY

CITY            SKY/WX      TMP DP  RH  WIND    PRES   REMARKS
LA GRANDE       PTCLDY      66  37  34  NW8     30.08R
#COVE           N/A         63  48  58  CALM    30.10R
#COVE SCHOOL    N/A         63  45  52  CALM    30.09R
#COVE 6NW       N/A         66  43  43  N3      29.94R
#ELGIN 3N       N/A         65  35  33  CALM    30.05R
#ELGIN 1E       N/A         68  39  35  CALM    N/A
#IMBLER SCHOOL  N/A         66  38  36  CALM    30.03R
#ISLAND CITY 4N N/A         64  56  75  CALM    30.11S
#LA GRANDE-LEFFEN/A         67  38  34  SW3     30.08R
#UNION 1S       N/A         69  43  39  NW3     29.94R
$$

ORZ050-210510-
WALLOWA COUNTY

CITY            SKY/WX      TMP DP  RH  WIND    PRES   REMARKS
JOSEPH AIRPORT  CLEAR       63  41  44  CALM    30.14R
#ENTERPRISE HS  N/A         66  42  42  NW2     29.83R
#IMNAHA SCHOOL  N/A         77  42  29  CALM    29.98R
#IMNAHA 10S     N/A         76  44  32  S3      30.01R
#JOSEPH         N/A         63  45  52  CALM    30.07R
#JOSEPH 3N      N/A         61  42  50  CALM    30.14R
#JOSEPH 3W      N/A         N/A N/A N/A W1      29.99R
#LOSTINE        N/A         63  42  46  CALM    29.76R
#LOSTINE 3SE    N/A         63  40  43  N1      30.15R
#MT HOWARD 8000 N/A         49  39  68  S2      30.34R
#PROMISE 1S     N/A         62  45  54  CALM    30.05R
#WALLOWA LAKE   N/A         58  47  67  CALM    30.18R
#WALLOWA SCHOOL N/A         67  40  37  CALM    30.04R



$$



USA.gov is the U.S. government's official web portal to all federal, state and local government web resources and services.